Weather History for La Veta Pass, CO

Change the Weather History Date:

Saturday, October 4, 2014

  Actual Average (KTAD) Record (KTAD)
Temperature  
Mean Temperature 47 °F 57 °F  
Max Temperature 59 °F 72 °F 86 °F (1954)
Min Temperature 35 °F 41 °F 29 °F (1959)
Degree Days  
Heating Degree Days 18 9  
Month to date heating degree days 33  
Since 1 July heating degree days 143  
Cooling Degree Days 0 0  
Month to date cooling degree days 0  
Year to date cooling degree days 716  
Moisture  
Dew Point 21 °F    
Average Humidity 39    
Maximum Humidity 56    
Minimum Humidity 25    
Precipitation  
Precipitation 0.00 in 0.03 in 0.60 in (1976)
Month to date precipitation 0.11  
Year to date precipitation 11.81  
Sea Level Pressure  
Sea Level Pressure 30.36 in    
Wind  
Wind Speed 12 mph (SSW)    
Max Wind Speed 21 mph    
Max Gust Speed 31 mph    
Visibility 10 miles    
Events      
T = Trace of Precipitation, MM = Missing Value Source: NWS Daily Summary

Daily Weather History Graph

Daily Weather History Graph

Search for Another Location

Airport:

Trip Planner

Search our weather history database for the weather conditions in past years. The results will help you decide how hot, cold, wet, or windy it might be!

Date:

Astronomy

Oct. 04, 2014 Rise Set
Actual Time 6:58 AM MDT 6:39 PM MDT
Civil Twilight 6:32 AM MDT 7:05 PM MDT
Nautical Twilight 6:02 AM MDT 7:35 PM MDT
Astronomical Twilight 5:32 AM MDT 8:05 PM MDT
Moon 4:13 PM MDT (10/4) 2:34 AM MDT (10/4)
Length of Visible Light 12h 32m
Length of Day
11h 40m
Waxing Gibbous, 81% of the Moon is Illuminated
Oct 4
Waxing Gibbous
Oct 8
Full
Oct 15
Last Quarter
Oct 23
New
Oct 30
First Quarter

Hourly Weather History & Observations

Time (MDT) Temp. Windchill Dew Point Humidity Pressure Visibility Wind Dir Wind Speed Gust Speed Precip Events Conditions
12:12 AM 41.0 °F 34.3 °F 17.6 °F 39% 30.43 in 10.0 mi South 11.5 mph 19.6 mph N/A   Clear
12:27 AM 41.0 °F 34.7 °F 17.6 °F 39% 30.42 in 10.0 mi South 10.4 mph 19.6 mph N/A   Clear
12:52 AM 41.0 °F 33.9 °F 19.4 °F 42% 30.42 in 10.0 mi South 12.7 mph 21.9 mph N/A   Clear
1:12 AM 41.0 °F 32.8 °F 17.6 °F 39% 30.41 in 10.0 mi SSW 16.1 mph 24.2 mph N/A   Clear
1:32 AM 41.0 °F 33.5 °F 17.6 °F 39% 30.41 in 10.0 mi South 13.8 mph 21.9 mph N/A   Clear
1:52 AM 41.0 °F 33.9 °F 19.4 °F 42% 30.42 in 10.0 mi South 12.7 mph 27.6 mph N/A   Clear
2:11 AM 39.2 °F 31.2 °F 19.4 °F 45% 30.42 in 10.0 mi SSW 13.8 mph 23.0 mph N/A   Clear
2:31 AM 39.2 °F 31.6 °F 19.4 °F 45% 30.42 in 10.0 mi SSW 12.7 mph 20.7 mph N/A   Clear
2:50 AM 39.2 °F 31.2 °F 19.4 °F 45% 30.42 in 10.0 mi South 13.8 mph 21.9 mph N/A   Clear
3:11 AM 39.2 °F 32.0 °F 19.4 °F 45% 30.42 in 10.0 mi South 11.5 mph 21.9 mph N/A   Clear
3:30 AM 39.2 °F 29.6 °F 19.4 °F 45% 30.41 in 10.0 mi South 19.6 mph 27.6 mph N/A   Clear
3:52 AM 39.2 °F 30.2 °F 19.4 °F 45% 30.41 in 10.0 mi South 17.3 mph 25.3 mph N/A   Clear
4:07 AM 39.2 °F 29.3 °F 19.4 °F 45% 30.40 in 10.0 mi South 20.7 mph 25.3 mph N/A   Clear
4:25 AM 39.2 °F 30.5 °F 21.2 °F 49% 30.40 in 10.0 mi South 16.1 mph 31.1 mph N/A   Clear
4:47 AM 37.4 °F 28.9 °F 21.2 °F 52% 30.39 in 10.0 mi South 13.8 mph 25.3 mph N/A   Clear
5:01 AM 37.4 °F 29.3 °F 21.2 °F 52% 30.39 in 10.0 mi SSW 12.7 mph 28.8 mph N/A   Clear
5:25 AM 37.4 °F 27.2 °F 19.4 °F 48% 30.38 in 10.0 mi South 19.6 mph 26.5 mph N/A   Clear
5:48 AM 37.4 °F 28.2 °F 19.4 °F 48% 30.39 in 10.0 mi South 16.1 mph 23.0 mph N/A   Clear
6:08 AM 37.4 °F 28.5 °F 19.4 °F 48% 30.39 in 10.0 mi South 15.0 mph 24.2 mph N/A   Clear
6:29 AM 35.6 °F 26.2 °F 21.2 °F 56% 30.39 in 10.0 mi South 15.0 mph 24.2 mph N/A   Clear
6:51 AM 35.6 °F 26.6 °F 19.4 °F 52% 30.38 in 10.0 mi South 13.8 mph 29.9 mph N/A   Clear
7:12 AM 35.6 °F 25.9 °F 21.2 °F 56% 30.38 in 10.0 mi South 16.1 mph 28.8 mph N/A   Clear
7:24 AM 35.6 °F 26.6 °F 21.2 °F 56% 30.38 in 10.0 mi South 13.8 mph 26.5 mph N/A   Clear
7:51 AM 37.4 °F 29.8 °F 21.2 °F 52% 30.39 in 10.0 mi South 11.5 mph 21.9 mph N/A   Clear
8:10 AM 37.4 °F 30.3 °F 21.2 °F 52% 30.40 in 10.0 mi SSW 10.4 mph 19.6 mph N/A   Clear
8:31 AM 39.2 °F 33.6 °F 21.2 °F 49% 30.40 in 10.0 mi South 8.1 mph 16.1 mph N/A   Clear
8:42 AM 39.2 °F 34.2 °F 21.2 °F 49% 30.41 in 10.0 mi South 6.9 mph - N/A   Clear
9:10 AM 42.8 °F 40.1 °F 23.0 °F 46% 30.42 in 10.0 mi SW 4.6 mph - N/A   Clear
9:30 AM 44.6 °F 41.4 °F 23.0 °F 43% 30.42 in 10.0 mi SSW 5.8 mph - N/A   Clear
9:51 AM 44.6 °F 41.4 °F 23.0 °F 43% 30.42 in 10.0 mi SW 5.8 mph - N/A   Clear
10:12 AM 46.4 °F 43.5 °F 23.0 °F 40% 30.42 in 10.0 mi SSW 5.8 mph - N/A   Clear
10:29 AM 48.2 °F - 23.0 °F 37% 30.42 in 10.0 mi SW 5.8 mph - N/A   Clear
10:43 AM 50.0 °F - 23.0 °F 35% 30.41 in 10.0 mi South 8.1 mph 17.3 mph N/A   Clear
11:07 AM 51.8 °F - 24.8 °F 35% 30.41 in 10.0 mi SSW 6.9 mph 16.1 mph N/A   Clear
11:31 AM 53.6 °F - 26.6 °F 35% 30.41 in 10.0 mi South 10.4 mph 16.1 mph N/A   Clear
11:52 AM 53.6 °F - 24.8 °F 33% 30.40 in 10.0 mi South 11.5 mph 19.6 mph N/A   Clear
12:11 PM 55.4 °F - 26.6 °F 33% 30.39 in 10.0 mi South 11.5 mph 18.4 mph N/A   Clear
12:31 PM 55.4 °F - 26.6 °F 33% 30.38 in 10.0 mi South 12.7 mph 21.9 mph N/A   Clear
12:43 PM 55.4 °F - 24.8 °F 31% 30.38 in 10.0 mi South 15.0 mph 25.3 mph N/A   Clear
1:05 PM 53.6 °F - 24.8 °F 33% 30.36 in 10.0 mi South 15.0 mph 25.3 mph N/A   Clear
1:28 PM 55.4 °F - 24.8 °F 31% 30.35 in 10.0 mi South 15.0 mph 21.9 mph N/A   Clear
1:52 PM 55.4 °F - 23.0 °F 29% 30.34 in 10.0 mi South 15.0 mph 25.3 mph N/A   Clear
2:04 PM 55.4 °F - 23.0 °F 29% 30.33 in 10.0 mi South 11.5 mph 25.3 mph N/A   Clear
2:29 PM 57.2 °F - 24.8 °F 29% 30.34 in 10.0 mi South 12.7 mph 23.0 mph N/A   Clear
2:41 PM 59.0 °F - 26.6 °F 29% 30.33 in 10.0 mi South 13.8 mph 23.0 mph N/A   Clear
3:10 PM 59.0 °F - 24.8 °F 27% 30.33 in 10.0 mi South 15.0 mph 25.3 mph N/A   Clear
3:32 PM 59.0 °F - 24.8 °F 27% 30.32 in 10.0 mi South 17.3 mph 29.9 mph N/A   Clear
3:52 PM 59.0 °F - 23.0 °F 25% 30.32 in 10.0 mi South 15.0 mph 21.9 mph N/A   Clear
4:12 PM 57.2 °F - 23.0 °F 27% 30.31 in 10.0 mi South 12.7 mph 24.2 mph N/A   Clear
4:32 PM 57.2 °F - 23.0 °F 27% 30.31 in 10.0 mi SSW 6.9 mph 19.6 mph N/A   Clear
4:52 PM 57.2 °F - 23.0 °F 27% 30.31 in 10.0 mi SSW 4.6 mph - N/A   Clear
5:12 PM 55.4 °F - 21.2 °F 26% 30.31 in 10.0 mi West 5.8 mph - N/A   Clear
5:31 PM 53.6 °F - 21.2 °F 28% 30.31 in 10.0 mi WSW 6.9 mph - N/A   Clear
5:52 PM 53.6 °F - 21.2 °F 28% 30.31 in 10.0 mi WSW 5.8 mph - N/A   Clear
6:09 PM 53.6 °F - 21.2 °F 28% 30.31 in 10.0 mi Calm Calm - N/A   Clear
6:20 PM 53.6 °F - 21.2 °F 28% 30.30 in 10.0 mi West 4.6 mph - N/A   Clear
6:52 PM 50.0 °F - 19.4 °F 30% 30.30 in 10.0 mi SW 4.6 mph - N/A   Clear
7:09 PM 48.2 °F - 21.2 °F 34% 30.30 in 10.0 mi WSW 5.8 mph - N/A   Clear
7:32 PM 46.4 °F 43.5 °F 21.2 °F 37% 30.30 in 10.0 mi WSW 5.8 mph - N/A   Clear
7:51 PM 46.4 °F 44.3 °F 21.2 °F 37% 30.31 in 10.0 mi SW 4.6 mph - N/A   Clear
8:09 PM 46.4 °F 43.5 °F 21.2 °F 37% 30.31 in 10.0 mi SSW 5.8 mph - N/A   Clear
8:27 PM 46.4 °F 45.2 °F 21.2 °F 37% 30.31 in 10.0 mi WSW 3.5 mph - N/A   Clear
8:49 PM 46.4 °F 42.9 °F 21.2 °F 37% 30.31 in 10.0 mi West 6.9 mph - N/A   Clear
9:12 PM 44.6 °F 41.4 °F 19.4 °F 37% 30.31 in 10.0 mi WSW 5.8 mph - N/A   Clear
9:30 PM 44.6 °F 41.4 °F 19.4 °F 37% 30.31 in 10.0 mi WSW 5.8 mph - N/A   Clear
9:52 PM 44.6 °F 41.4 °F 19.4 °F 37% 30.31 in 10.0 mi West 5.8 mph - N/A   Clear
10:10 PM 44.6 °F 40.2 °F 19.4 °F 37% 30.31 in 10.0 mi West 8.1 mph - N/A   Clear
10:23 PM 44.6 °F 39.7 °F 21.2 °F 39% 30.31 in 10.0 mi West 9.2 mph - N/A   Clear
10:49 PM 44.6 °F 40.7 °F 21.2 °F 39% 30.30 in 10.0 mi West 6.9 mph - N/A   Clear
11:12 PM 42.8 °F 40.1 °F 21.2 °F 42% 30.30 in 10.0 mi WSW 4.6 mph - N/A   Clear
11:28 PM 44.6 °F 41.4 °F 21.2 °F 39% 30.30 in 10.0 mi West 5.8 mph - N/A   Clear
11:44 PM 42.8 °F 39.3 °F 21.2 °F 42% 30.30 in 10.0 mi West 5.8 mph - N/A   Clear